Date String (YYYY-MM-DD hh:mm:ss) UTC,Instrument flags,Ambient pressure (hPa),Sample flow (lpm),Bypass flow (lpm),Sample temperature (°C),Ambient temperature (°C),ASC tube jacket temperature (°C),LED temperature (°C),Box temperature (°C),Sample RH (%),Span deviation,Mass concentration (μg/m³),Mass concentration (μg/m³),Mass concentration (μg/m³)
DateTimeUTC,F1_M11,P_M11,Q1_M11,Q2_M11,T1_M11,T2_M11,T3_M11,T4_M11,T5_M11,U1_M11,ZSPAN_M11,X0_M11,X2_M11,X1_M11
2021-11-05 17:00:00,,0827.8,5.00,0.00,30.3,29.7,00.0,39.2,32.1,11.4,0000.0,0012.49,0004.31,0003.63
2021-11-05 17:01:00,,0827.9,4.98,0.00,30.4,29.7,00.0,39.2,32.2,11.5,0000.0,0012.34,0004.35,0003.66
2021-11-05 17:02:00,,0827.9,5.00,0.00,30.4,29.7,00.0,39.2,32.2,11.4,0000.0,0012.17,0004.39,0003.68
2021-11-05 17:03:00,,0827.9,5.01,0.00,30.4,29.8,00.0,39.2,32.2,11.2,0000.0,0011.56,0004.42,0003.71
2021-11-05 17:04:00,,0827.9,5.00,0.00,30.5,29.8,00.0,39.3,32.3,11.2,0000.0,0011.54,0004.41,0003.72
2021-11-05 17:05:00,,0827.9,5.00,0.00,30.5,29.8,00.0,39.3,32.3,11.2,0000.0,0011.52,0004.38,0003.69
2021-11-05 17:06:00,,0827.9,4.99,0.00,30.5,29.9,00.0,39.3,32.3,11.2,0000.0,0011.37,0004.31,0003.64
2021-11-05 17:07:00,,0827.9,5.00,0.00,30.5,29.9,00.0,39.3,32.3,11.3,0000.0,0011.52,0004.25,0003.60
2021-11-05 17:08:00,,0827.9,5.00,0.00,30.6,29.9,00.0,39.4,32.4,11.2,0000.0,0010.53,0004.23,0003.57
2021-11-05 17:09:00,,0827.8,4.99,0.00,30.6,29.9,00.0,39.4,32.4,10.8,0000.0,0009.78,0004.16,0003.52
2021-11-05 17:10:00,,0827.7,5.01,0.00,30.6,29.9,00.0,39.4,32.4,10.8,0000.0,0009.70,0004.09,0003.47
2021-11-05 17:11:00,,0827.8,5.01,0.00,30.6,30.0,00.0,39.5,32.4,10.6,0000.0,0009.42,0004.07,0003.42
2021-11-05 17:12:00,,0827.9,5.00,0.00,30.6,30.0,00.0,39.5,32.4,10.9,0000.0,0008.96,0004.00,0003.37
2021-11-05 17:13:00,,0827.9,5.00,0.00,30.7,30.0,00.0,39.5,32.5,10.8,0000.0,0009.11,0003.94,0003.34
2021-11-05 17:14:00,,0827.8,4.99,0.00,30.7,30.0,00.0,39.5,32.5,10.5,0000.0,0009.02,0003.89,0003.29
2021-11-05 17:15:00,,0827.7,5.00,0.00,30.7,30.1,00.0,39.6,32.5,10.5,0000.0,0008.77,0003.81,0003.22
2021-11-05 17:16:00,,0827.7,5.01,0.00,30.7,30.1,00.0,39.6,32.5,10.6,0000.0,0009.09,0003.72,0003.15
2021-11-05 17:17:00,,0827.8,5.00,0.00,30.8,30.1,00.0,39.6,32.5,10.3,0000.0,0009.13,0003.65,0003.08
2021-11-05 17:18:00,,0827.9,5.00,0.00,30.8,30.1,00.0,39.6,32.6,10.2,0000.0,0008.85,0003.56,0002.95
2021-11-05 17:19:00,,0827.9,4.99,0.00,30.8,30.1,00.0,39.7,32.6,09.8,0000.0,0008.34,0003.42,0002.77
2021-11-05 17:20:00,,0827.9,5.01,0.00,30.8,30.2,00.0,39.7,32.6,09.9,0000.0,0008.86,0003.32,0002.62
2021-11-05 17:21:00,,0827.9,4.99,0.00,30.8,30.2,00.0,39.7,32.6,09.9,0000.0,0008.84,0003.23,0002.49
2021-11-05 17:22:00,,0827.9,5.00,0.00,30.9,30.2,00.0,39.7,32.6,10.3,0000.0,0008.58,0003.13,0002.39
2021-11-05 17:23:00,,0828.0,5.00,0.00,30.9,30.2,00.0,39.7,32.7,10.3,0000.0,0008.89,0003.06,0002.30
2021-11-05 17:24:00,,0828.0,5.01,0.00,30.9,30.2,00.0,39.8,32.7,10.2,0000.0,0009.41,0003.00,0002.23
2021-11-05 17:25:00,,0827.9,4.99,0.00,30.9,29.1,00.0,39.8,32.6,10.5,0000.0,0009.42,0002.98,0002.17
2021-11-05 17:26:00,,0827.9,5.00,0.00,30.8,27.0,00.0,39.8,32.1,10.7,0000.0,0009.53,0003.01,0002.16
2021-11-05 17:27:00,,0827.8,5.00,0.00,30.7,26.4,00.0,39.7,32.0,10.7,0000.0,0009.04,0003.03,0002.15
2021-11-05 17:28:00,,0827.7,5.01,0.00,30.6,26.8,00.0,39.7,32.0,10.0,0000.0,0008.89,0002.99,0002.12
2021-11-05 17:29:00,,0827.8,5.00,0.00,30.5,27.2,00.0,39.6,31.9,10.5,0000.0,0008.59,0002.91,0002.09
2021-11-05 17:30:00,,0827.9,4.98,0.00,30.4,27.7,00.0,39.5,31.9,10.7,0000.0,0008.40,0003.01,0002.12
2021-11-05 17:31:00,,0827.9,5.02,0.00,30.4,28.1,00.0,39.5,31.9,10.6,0000.0,0007.81,0003.09,0002.16
2021-11-05 17:32:00,,0827.9,5.00,0.00,30.4,28.5,00.0,39.5,32.0,10.8,0000.0,0007.66,0003.15,0002.20
2021-11-05 17:33:00,,0827.9,5.00,0.00,30.4,28.7,00.0,39.5,32.0,10.6,0000.0,0007.75,0003.19,0002.21
2021-11-05 17:34:00,,0827.9,5.00,0.00,30.4,28.9,00.0,39.5,32.1,10.7,0000.0,0007.46,0003.17,0002.21
2021-11-05 17:35:00,,0827.9,5.00,0.00,30.4,29.1,00.0,39.4,32.1,10.8,0000.0,0006.16,0003.15,0002.20
2021-11-05 17:36:00,,0827.9,5.00,0.00,30.4,29.2,00.0,39.4,32.1,10.8,0000.0,0006.86,0003.15,0002.20
2021-11-05 17:37:00,,0827.9,5.00,0.00,30.5,29.3,00.0,39.4,32.2,10.8,0000.0,0006.93,0003.13,0002.19
2021-11-05 17:38:00,,0827.9,5.00,0.00,30.5,29.4,00.0,39.5,32.2,10.6,0000.0,0007.24,0003.08,0002.16
2021-11-05 17:39:00,,0827.9,5.01,0.00,30.5,29.5,00.0,39.5,32.3,10.7,0000.0,0007.69,0003.04,0002.15
2021-11-05 17:40:00,,0827.8,4.99,0.00,30.5,29.6,00.0,39.5,32.3,10.5,0000.0,0008.33,0003.10,0002.16
2021-11-05 17:41:00,,0827.9,5.01,0.00,30.6,29.6,00.0,39.5,32.3,10.5,0000.0,0008.31,0003.07,0002.14
2021-11-05 17:42:00,,0827.9,5.01,0.00,30.6,29.7,00.0,39.5,32.3,10.7,0000.0,0008.25,0003.01,0002.13
2021-11-05 17:43:00,,0827.7,5.00,0.00,30.6,29.7,00.0,39.5,32.4,10.6,0000.0,0008.23,0002.97,0002.13
2021-11-05 17:44:00,,0827.7,5.00,0.00,30.6,29.8,00.0,39.5,32.4,10.6,0000.0,0008.14,0002.85,0002.12
2021-11-05 17:45:00,,0827.6,5.00,0.00,30.7,29.8,00.0,39.6,32.4,10.7,0000.0,0008.19,0002.82,0002.11
2021-11-05 17:46:00,,0827.5,5.00,0.00,30.7,29.9,00.0,39.6,32.4,10.3,0000.0,0007.81,0002.75,0002.07
2021-11-05 17:47:00,,0827.5,5.00,0.00,30.7,29.9,00.0,39.6,32.5,10.5,0000.0,0007.21,0002.69,0002.03
2021-11-05 17:48:00,,0827.5,5.00,0.00,30.7,29.8,00.0,39.6,32.5,10.2,0000.0,0007.12,0002.67,0002.00
2021-11-05 17:49:00,,0827.5,4.99,0.00,30.7,28.3,00.0,39.6,32.2,10.3,0000.0,0006.72,0002.68,0001.97
2021-11-05 17:50:00,,0827.6,5.01,0.00,30.5,26.6,00.0,39.6,31.8,10.7,0000.0,0005.93,0002.70,0001.97
2021-11-05 17:51:00,,0827.5,5.00,0.00,30.4,26.7,00.0,39.5,31.8,10.5,0000.0,0005.89,0002.75,0001.98
2021-11-05 17:52:00,,0827.5,5.00,0.00,30.3,27.1,00.0,39.5,31.8,10.4,0000.0,0007.19,0002.76,0001.97
2021-11-05 17:53:00,,0827.6,5.01,0.00,30.3,27.5,00.0,39.4,31.7,10.2,0000.0,0007.58,0002.76,0001.93
2021-11-05 17:54:00,,0827.5,5.00,0.00,30.2,28.0,00.0,39.4,31.8,10.3,0000.0,0007.60,0002.72,0001.89
2021-11-05 17:55:00,,0827.4,5.00,0.00,30.2,28.3,00.0,39.4,31.9,10.1,0000.0,0007.59,0002.71,0001.85
2021-11-05 17:56:00,,0827.4,5.00,0.00,30.3,28.5,00.0,39.3,31.9,09.8,0000.0,0007.45,0002.65,0001.78
2021-11-05 17:57:00,,0827.4,5.00,0.00,30.3,28.8,00.0,39.3,32.0,09.8,0000.0,0008.19,0002.64,0001.74
2021-11-05 17:58:00,,0827.4,5.00,0.00,30.3,28.9,00.0,39.3,32.0,09.8,0000.0,0009.19,0002.61,0001.71
2021-11-05 17:59:00,,0827.4,5.00,0.00,30.3,29.1,00.0,39.3,32.1,10.1,0000.0,0009.32,0002.60,0001.68
